Regional Weather Roundup
Issued by NWS

Home | Current Version | Previous Version | Graphics & Text | Print | Product List | Glossary On
Versions: 1 2 3 4 5 6 7 8 9 10 11 12 13 14 15 16 17 18 19 20 21 22 23 24 25 26 27 28 29 30 31 32 33 34 35 36 37 38 39 40 41 42 43 44 45 46 47 48 49 50
000
ASUS43 KDMX 231607
RWRIA

WEATHER ROUNDUP FOR IOWA
NATIONAL WEATHER SERVICE DES MOINES IA
1100 AM CDT WED JUL 23 2014

NOTE: "FAIR" INDICATES FEW OR NO CLOUDS BELOW 12,000 FEET WITH NO
SIGNIFICANT WEATHER AND/OR OBSTRUCTIONS TO VISIBILITY.

* - THESE STATIONS ARE NOT NWS STATIONS...THUS NOT UNDER NWS
QUALITY CONTROL.  THEY ALSO DO NOT REPORT WEATHER SUCH
AS PRECIPITATION OR FOG.

IAZ001>003-012>014-020>022-031>034-043>046-231700-
   NORTHWEST IOWA

CITY           SKY/WX    TMP DP  RH WIND       PRES   REMARKS
CARROLL *      SUNNY     73  64  73 N6        30.24S
CHEROKEE *     SUNNY     73  61  64 NE3       30.26S
DENISON *      SUNNY     73  61  64 N6        30.24R
LE MARS *      SUNNY     75  59  57 N5        30.28S
ORANGE CITY *  SUNNY     75  54  46 NE6       30.27F
SHELDON *      SUNNY     73  59  60 NE6       30.28R
SIOUX CITY     SUNNY     77  59  53 E6        30.26F
SPENCER        SUNNY     75  59  57 VRB3      30.27S
STORM LAKE *   SUNNY     73  63  68 N6        30.27S
$$

IAZ055>058-069>071-079>083-090>094-231700-
   SOUTHWEST IOWA

CITY           SKY/WX    TMP DP  RH WIND       PRES   REMARKS
ATLANTIC *     SUNNY     75  63  64 VRB3      30.23S
AUDUBON *      SUNNY     77  70  78 N5        30.26R
CLARINDA *     SUNNY     77  66  69 NE6       30.24R
COUNCIL BLFS * SUNNY     77  61  57 N9        30.24R
CRESTON *      SUNNY     75  66  73 N7        30.22S
HARLAN  *      SUNNY     75  64  69 VRB6      30.28R
LAMONI         MOSUNNY   78  66  66 N7        30.20R HX  80
RED OAK *      SUNNY     77  64  65 NE6       30.24R
SHENANDOAH *   SUNNY     77  64  65 N8        30.24R
$$

IAZ047>049-059>061-072>074-084-231700-
   CENTRAL IOWA

CITY           SKY/WX    TMP DP  RH WIND       PRES   REMARKS
AMES           PTSUNNY   76  60  57 E10       30.23R
ANKENY *       MOSUNNY   77  63  61 NE9       30.22R
CHARITON *     SUNNY     77  64  65 NE8       30.20S
DES MOINES     PTSUNNY   80  63  55 MISG      30.21R HX  81
GRINNELL*      SUNNY     75  59  57 NE9       30.22S
KNOXVILLE *    SUNNY     77  63  61 NE10      30.19S
MARSHALLTOWN   SUNNY     77  61  57 NE6       30.22S
PELLA *        SUNNY     79  63  57 NE8       30.21S HX  80
PERRY *          N/A     75  64  69 N5        30.23R
$$

IAZ004>006-015-016-023>025-035-036-231700-
   NORTH CENTRAL IOWA

CITY           SKY/WX    TMP DP  RH WIND       PRES   REMARKS
ALGONA *       SUNNY     73  61  64 E5        30.26S
CLARION *      SUNNY     75  59  57 E8        30.25S
ESTHERVILLE    SUNNY     72  61  68 E3        30.26S
FORT DODGE *   SUNNY     75  63  64 E3        30.26R
MASON CITY     MOSUNNY   75  58  55 E7        30.26S
FOREST CITY *  SUNNY     73  57  56 NE5       30.25F
IOWA FALLS *     N/A     75  57  53 NE7       30.25R
$$

IAZ007>011-017>019-026>030-037>042-050>054-066-231700-
   NORTHEAST IOWA

CITY           SKY/WX    TMP DP  RH WIND       PRES   REMARKS
CEDAR RAPIDS   SUNNY     75  58  55 NE13      30.20R
CHARLES CITY * SUNNY     75  55  50 E9        30.25S
CLINTON *      SUNNY     73  57  56 NE14      30.22S
DECORAH *      SUNNY     72  57  60 CALM      30.23F
DUBUQUE        SUNNY     72  59  63 NE15      30.22S
MONTICELLO *   SUNNY     75  59  57 NE10      30.21F
OELWEIN *      SUNNY     73  57  56 NE10      30.24F
WATERLOO       SUNNY     76  56  49 NE9       30.22S
$$

IAZ064-065-067-068-078-231700-
   EAST CENTRAL IOWA

CITY           SKY/WX    TMP DP  RH WIND       PRES   REMARKS
DAVENPORT      SUNNY     75  60  59 NE14G22   30.20R
IOWA CITY      SUNNY     75  63  66 NE10      30.20R
MT. PLEASANT * MOSUNNY   77  64  65 NE10      30.18R
MUSCATINE *    MOSUNNY   77  63  61 NE14      30.18R
QUAD CITIES    SUNNY     76  58  53 N15       30.17S
$$

IAZ062-063-075>077-085>089-095>099-231700-
   SOUTHEAST IOWA

CITY           SKY/WX    TMP DP  RH WIND       PRES   REMARKS
BURLINGTON     MOSUNNY   76  65  68 NE15      30.15R
FAIRFIELD *    SUNNY     75  63  64 NE13      30.18S
FORT MADISON * MOSUNNY   77  68  73 NE8       30.16R
KEOKUK *       PTSUNNY   77  68  73 VRB7G16   30.13S
OSKALOOSA *      N/A     77  64  65 NE10      30.20S
CENTERVILLE *  SUNNY     77  64  65 NE7       30.20S
OTTUMWA        SUNNY     77  63  61 NE10      30.17R
WASHINGTON *   SUNNY     77  64  65 NE13      30.18S
$$

ABBREVIATIONS USED IN REMARKS
   TC - TEMPERATURES IN CELSIUS
  WCI - WIND CHILL INDEX
   HX - HEAT INDEX
  VSB - VISIBILITY
$$



USA.gov is the U.S. government's official web portal to all federal, state and local government web resources and services.